Regional Weather Roundup
Issued by NWS

Home | Current Version | Previous Version | Text Only | Print | Product List | Glossary On
Versions: 1 2 3 4 5 6 7 8 9 10 11 12 13 14 15 16 17 18 19 20 21 22 23 24 25 26 27 28 29 30 31 32 33 34 35 36 37 38 39 40 41 42 43 44 45 46 47 48 49 50
000
ASUS43 KMPX 130901
RWRMN
WEATHER ROUNDUP FOR MINNESOTA
NATIONAL WEATHER SERVICE TWIN CITIES/CHANHASSEN MN
300 AM CST SAT FEB 13 2016


NOTE: "FAIR" INDICATES FEW OR NO CLOUDS BELOW 12,000 FEET WITH NO
SIGNIFICANT WEATHER AND/OR OBSTRUCTIONS TO VISIBILITY. N/A MEANS
CURRENT SKY AND/OR WEATHER CONDITIONS ARE NOT AVAILABLE.

MNZ060>063-068>070-131000-
   Twin Cities Metro

CITY           SKY/WX    TMP DP  RH WIND       PRES   REMARKS
TWIN CITIES    CLOUDY    -4 -12  68 NW6       30.65R WCI -16
ST PAUL        PTCLDY    -3 -13  62 NW9       30.67R WCI -19
CRYSTAL        CLOUDY    -4 -13  65 NW6       30.64R WCI -16
BLAINE         CLOUDY    -4 -11  71 NW6       30.63R WCI -16
LAKEVILLE      CLOUDY    -6 -11  77 NW5       30.63R WCI -17
EDEN PRAIRIE   CLOUDY    -5 -13  68 NW6       30.64R WCI -18
SOUTH ST PAUL  CLOUDY    -2 -12  61 NW6       30.65R WCI -14
LAKE ELMO      FAIR      -4 -13  65 NW3       30.64R
$$
MNZ001>005-007-008-013>017-022>024-027-028-131000-
   Northwest Minnesota

CITY           SKY/WX    TMP DP  RH WIND       PRES   REMARKS
BEMIDJI        CLOUDY   -22 -27  76 CALM      30.57F
HALLOCK        CLOUDY   -15 -20  76 S5        30.62F WCI -27
ROSEAU         CLOUDY   -24 -29  76 S3          N/A
WARROAD        CLOUDY   -20 -27  69 SW3       30.59S
THIEF RVR FALL CLOUDY   -15 N/A N/A CALM      30.60F
CROOKSTON      CLOUDY   -11 -17  77 S3        30.65S
FOSSTON          N/A    -24 -31  69 CALM      30.59F
DETROIT LAKES  CLOUDY   -13 -17  84 CALM      30.58F
MOORHEAD       CLOUDY    -8 -13  77 CALM      30.64F
PARK RAPIDS    CLOUDY   -20 -26  74 W5        30.57S WCI -33
MAHNOMEN       FAIR     -20 -25  77 S5        30.60S WCI -33
$$
MNZ006-009>011-018-025>026-131000-
   North Central Minnesota

CITY           SKY/WX    TMP DP  RH WIND       PRES   REMARKS
BAUDETTE       CLOUDY   -19 -25  73 W7        30.57R WCI -36
FLAG ISLAND    CLOUDY   -18 -24  76 CALM      30.57S
INTL FALLS     CLOUDY   -18 -24  74 W5        30.57R WCI -31
WASKISH        CLOUDY   -17 -22  76 SW5       30.59S WCI -29
LONGVILLE      CLOUDY   -18 -24  76 CALM      30.59R
GRAND RAPIDS   CLOUDY   -15 -20  76 W9        30.56R WCI -33
CRANE LAKE     CLOUDY   -26 -31  75 S1        30.57S
ORR            CLOUDY   -18 -26  69 CALM      30.51S
COOK           CLOUDY   -20 -26  76 W3        30.55R
WALKER         FAIR     -16 -21  78 CALM      30.58S
$$
MNZ012-019>021-037-131000-
   Northeast Minnesota

CITY           SKY/WX    TMP DP  RH WIND       PRES   REMARKS
DULUTH         CLOUDY   -13 -21  67 NW9       30.52F WCI -31
ELY            CLOUDY   -18 -24  76 W5        30.50S WCI -31
HIBBING        CLOUDY   -20 -25  77 NW7       30.54R WCI -37
EVELETH        CLOUDY   -13 -20  70 NW8       30.54S WCI -30
DULUTH HARBOR  CLOUDY    -6 -17  59 SW3       30.63F
TWO HARBORS    CLOUDY    -9 -18  64 NW7       30.52F WCI -24
SILVER BAY     CLOUDY   -11 -18  70 NW3       30.52S
GRAND MARAIS     N/A     -8 -17  64 SW5       30.56R WCI -19
G MARAIS ARPRT CLOUDY   -17 -24  70 NW8G17    30.37R WCI -34
$$
MNZ029>031-032-039>041-046>048-054>057-064-131000-
   West Central Minnesota

CITY           SKY/WX    TMP DP  RH WIND       PRES   REMARKS
FERGUS FALLS   CLOUDY    -9 -15  77 CALM      30.65F
WHEATON        CLOUDY    -9 -15  77 SW3       30.66S
MORRIS         CLOUDY    -8 -13  77 N3        30.61F
ALEXANDRIA     CLOUDY   -10 -16  74 NW3       30.59S
ELBOW LAKE     FAIR      -7 -12  81 CALM      30.61F
WADENA         CLOUDY   -15 -20  76 CALM      30.58F
GLENWOOD       CLOUDY    -9 -15  77 CALM      30.60F
APPLETON       CLOUDY    -6 -11  77 NW3       30.65S
BENSON         CLOUDY    -9 -15  77 CALM      30.62F
ORTONVILLE     CLOUDY    -8 -15  71 CALM      30.63S
MADISON        CLOUDY    -6 -11  77 W5        30.65S WCI -17
WILLMAR        FAIR      -6 -11  77 N5        30.62F WCI -17
$$
MNZ033>034-036-042>043-049>051-058-059-131000-
   Central Minnesota

CITY           SKY/WX    TMP DP  RH WIND       PRES   REMARKS
ST CLOUD       CLOUDY    -9 -16  71 NW6       30.62F WCI -22
SAUK CENTRE    FAIR     -11 -16  79 CALM      30.61S
PAYNESVILLE    PTCLDY    -8 -14  76 CALM      30.62F
AITKIN         CLOUDY   -17 -24  70 CALM      30.58F
PINE RIVER     CLOUDY   -17 -22  76 CALM      30.60F
BRAINERD       PTCLDY   -13 -18  78 W3        30.60S
STAPLES        CLOUDY   -15 -20  76 CALM      30.59F
LONG PRAIRIE   FAIR     -13 -17  84 N3        30.60S
LITTLE FALLS   PTCLDY    -9 -17  70 CALM      30.63S
LITCHFIELD     CLOUDY    -6 -11  77 N7        30.62S WCI -20
BUFFALO        CLOUDY    -7 -15  69 NW5       30.65R WCI -18
MAPLE LAKE     CLOUDY    -7 -13  74 NW5       30.64S WCI -18
$$
MNZ037-044-045-052-053-131000-
   East Central Minnesota

CITY           SKY/WX    TMP DP  RH WIND       PRES   REMARKS
PRINCETON      PTCLDY    -8 -15  71 NW5       30.62S WCI -19
MORA           CLOUDY    -6 -15  65 NW5       30.62S WCI -17
CAMBRIDGE      CLOUDY    -8 -17  65 CALM      30.62R
RUSH CITY      PTCLDY    -7 -15  66 NW3       30.63S
MOOSE LAKE     CLOUDY    -9 -18  64 W3        30.58R
HINCKLEY       FAIR      -8 -15  71 NW3       30.60S
CLOQUET        CLOUDY   -11 -20  64 NW9       30.54F WCI -29
MCGREGOR       CLOUDY   -11 -17  77 CALM      30.59F
$$
MNZ071>073-080-081-089-090-097-098-131000-
   Southwest Minnesota

CITY           SKY/WX    TMP DP  RH WIND       PRES   REMARKS
MONTEVIDEO     CLOUDY    -8 -11  84 NW3       30.65F
GRANITE FALLS  CLOUDY    -4  -8  81 W3        30.66S
CANBY          CLOUDY    -1  -7  77 CALM      30.64S
MARSHALL       CLOUDY    -5 -10  79 NW7       30.63F WCI -19
REDWOOD FALLS  CLOUDY    -5 -10  79 NW5       30.64S WCI -16
OLIVIA         CLOUDY    -2  -9  71 N5        30.63F WCI -12
PIPESTONE      CLOUDY    -6 -17  59 NE5       30.54F WCI -17
WINDOM         CLOUDY    -8 -11  84 CALM      30.59S
WORTHINGTON    CLOUDY    -8 -15  71 NW6       30.58F WCI -21
JACKSON        CLOUDY    -6 -13  71 NW5       30.59S WCI -17
TRACY          CLOUDY    -4  -9  79 NW6       30.61F WCI -17
SLAYTON        PTCLDY    -8 -11  84 NW7       30.57F WCI -22
$$
MNZ065>067-074>077-082>085-091>093-131000-
   South Central Minnesota

CITY           SKY/WX    TMP DP  RH WIND       PRES   REMARKS
MANKATO        CLOUDY    -4 -11  71 NW5       30.63R WCI -15
NEW ULM        CLOUDY    -6 -11  77 NW3       30.65R
ST JAMES       CLOUDY    -8 -11  84 NW5       30.64S WCI -19
FAIRMONT       CLOUDY    -4  -9  77 NW8       30.60S WCI -19
GLENCOE        CLOUDY    -4 -11  73 N5        30.64R WCI -15
FARIBAULT      PTCLDY    -6 -15  65 NW3       30.61S
OWATONNA       CLOUDY    -8 -15  71 CALM      30.60S
WASECA         CLOUDY    -6 -13  71 NW5       30.63R WCI -17
ALBERT LEA     CLOUDY    -4  -9  77 CALM      30.59R
$$
MNZ078>079-086>088-094>096-131000-
   Southeast Minnesota

CITY           SKY/WX    TMP DP  RH WIND       PRES   REMARKS
ROCHESTER      CLOUDY    -7 -14  71 NW12      30.57R WCI -26
RED WING       PTCLDY    -2 -15  55 NW2       30.63R
STANTON        PTCLDY    -4 -13  65 W5        30.62R WCI -15
DODGE CENTER   CLOUDY    -6 -13  71 NW7       30.57R WCI -20
WINONA         PTCLDY     3 -13  47 N9        30.64R WCI -11
AUSTIN         CLOUDY    -6 -11  77 N3        30.58S
PRESTON        CLOUDY    -6 -14  68 N9        30.56S WCI -22
$$
ABBREVIATIONS USED IN REMARKS
   TC - TEMPERATURES IN CELSIUS
  WCI - WIND CHILL INDEX
   HX - HEAT INDEX
  VSB - VISIBILITY
$$



USA.gov is the U.S. government's official web portal to all federal, state and local government web resources and services.